Location: Crescent
(42.8242°N, 73.7329°W)
Time: 18:46:46
(UTC+00:00)

Courier 1B - Pass Details

Date: 17 February 2026
Orbit: 962 x 1208 km, 28.3° (Epoch: 11 March)

Event Time Altitude Azimuth Distance (km) Brightness Sun altitude
Rises 23:15:22 0° 204° (SSW) 3,856 11.1 -9.1°
Reaches altitude 10° 23:20:13 10° 175° (S) 2,967 10.1 -10.0°
Maximum altitude 23:22:46 12° 154° (SSE) 2,849 9.7 -10.5°
Drops below altitude 10° 23:25:21 10° 133° (SE) 3,032 9.7 -10.9°
Enters shadow 23:27:29 - 120° (ESE) 3,377 9.8 -11.3°
